CW9443 Weather Reports


Display with metric or nautical units.
time (UTC)temp
F
wind
direction
speed
MPH
gust
MPH
rain 1hr
in
rain 24hr
in
rain mn
in
humidity
%
barometer
mb
20260901131558 59 230 0.0 0.0 0.00 0.00 0.00 95 1012.5
20260901130052 59 231 0.0 0.0 0.00 0.00 0.00 93 1012.7
20260901124559 59 230 0.0 0.0 0.00 0.00 0.00 92 1012.9
20260901123051 59 231 0.0 0.0 0.00 0.00 0.00 92 1012.8
20260901121549 59 231 0.0 0.0 0.00 0.00 0.00 92 1012.8
20260901120046 59 231 0.0 0.0 0.00 0.00 0.00 93 1012.7
20260901114557 59 231 0.0 0.0 0.00 0.00 0.00 92 1012.6
20260901113047 58 231 0.0 0.0 0.00 0.00 0.00 92 1012.7
20260901111547 58 231 0.0 0.0 0.00 0.00 0.00 92 1012.6
20260901110044 58 231 0.0 0.0 0.00 0.00 0.00 92 1012.6
20260901104542 57 230 0.0 0.0 0.00 0.00 0.00 91 1012.5
20260901103039 58 231 0.0 0.0 0.00 0.00 0.00 91 1012.3
20260901101534 57 231 0.0 0.0 0.00 0.00 0.00 91 1012.3
20260901100040 57 231 0.0 0.0 0.00 0.00 0.00 91 1012.5
20260901094536 58 230 0.0 0.0 0.00 0.00 0.00 91 1012.6
20260901093034 58 230 0.0 0.0 0.00 0.00 0.00 91 1012.6
20260901091530 58 231 0.0 0.0 0.00 0.00 0.00 91 1012.6
20260901090026 58 231 0.0 0.0 0.00 0.00 0.00 90 1012.7
20260901084528 59 230 0.0 0.0 0.00 0.00 0.00 90 1012.7
20260901083026 59 230 0.0 0.0 0.00 0.00 0.00 90 1012.8
20260901081532 59 230 0.0 0.0 0.00 0.00 0.00 90 1012.8
20260901080025 59 230 0.0 0.0 0.00 0.00 0.00 90 1012.8
20260901074522 59 230 0.0 0.0 0.00 0.00 0.00 89 1012.7
20260901073020 59 231 0.0 0.0 0.00 0.00 0.00 89 1012.7
20260901071515 60 230 0.0 0.0 0.00 0.00 0.00 89 1012.6
20260901070015 60 230 0.0 0.0 0.00 0.00 0.00 89 1012.5
20260901064513 60 231 0.0 0.0 0.00 0.00 0.00 88 1012.5
20260901063026 60 231 0.0 0.0 0.00 0.00 0.00 89 1012.4
20260901061511 61 231 0.0 0.0 0.00 0.00 0.00 88 1012.4
20260901060010 61 231 0.0 0.0 0.00 0.00 0.00 88 1012.3
20260901054527 61 231 0.0 0.0 0.00 0.00 0.00 87 1012.2
20260901053010 61 231 0.0 0.0 0.00 0.00 0.00 86 1012.2
20260901051505 61 231 0.0 0.0 0.00 0.00 0.00 86 1012.2
20260901050005 62 231 0.0 0.0 0.00 0.00 0.00 85 1012.2
20260901044506 62 230 0.0 0.0 0.00 0.00 0.00 84 1012.3
20260901043002 63 230 0.0 0.0 0.00 0.00 0.00 83 1012.2
20260901041559 63 230 0.0 0.0 0.00 0.00 0.00 83 1012.0
20260901040112 63 231 0.0 0.0 0.00 0.00 0.00 82 1011.8
20260901034601 64 230 0.0 0.0 0.00 0.00 0.00 80 1011.6
20260901033100 64 231 0.0 0.0 0.00 0.00 0.00 79 1011.3
20260901031556 65 231 0.0 0.0 0.00 0.00 0.00 77 1011.3
20260901030056 66 231 0.0 0.0 0.00 0.00 0.00 76 1011.2
20260901024555 66 231 0.0 0.0 0.00 0.00 0.00 74 1011.0
20260901023057 67 230 0.0 0.0 0.00 0.00 0.00 73 1011.1
20260901021553 68 231 0.0 0.0 0.00 0.00 0.00 72 1011.1
20260901020051 69 231 0.0 0.0 0.00 0.00 0.00 70 1011.0
20260901014554 70 230 0.0 0.0 0.00 0.00 0.00 67 1010.9
20260901013107 71 229 0.0 0.0 0.00 0.00 0.00 65 1011.0
20260901011550 73 229 0.0 0.0 0.00 0.00 0.00 64 1011.0
20260901010051 74 226 0.0 0.0 0.00 0.00 0.00 62 1010.9
20260901004547 74 224 0.0 0.0 0.00 0.00 0.00 61 1010.8
20260901003050 75 225 0.0 0.0 0.00 0.00 0.00 61 1010.8
20260901001545 75 207 0.0 0.0 0.00 0.00 0.00 61 1010.8
20260901000044 77 247 0.0 0.0 0.00 0.00 0.00 61 1010.9
20260831234553 77 217 0.0 0.0 0.00 0.00 0.00 60 1010.8
20260831233042 77 213 0.0 0.0 0.00 0.00 0.00 60 1010.6
20260831231540 78 217 0.0 0.0 0.00 0.00 0.00 59 1010.6
20260831230041 79 214 0.0 0.0 0.00 0.00 0.00 59 1010.7
20260831224539 79 242 0.0 0.0 0.00 0.00 0.00 59 1010.9
20260831223042 80 223 0.0 0.0 0.00 0.00 0.00 60 1010.9
20260831221534 79 209 0.0 0.0 0.00 0.00 0.00 60 1011.0
20260831220034 80 232 0.0 0.0 0.00 0.00 0.00 59 1011.2
20260831214536 80 211 1.0 0.0 0.00 0.00 0.00 60 1011.3
20260831213033 81 219 0.0 0.0 0.00 0.00 0.00 59 1011.2
20260831211534 81 257 0.0 0.0 0.00 0.00 0.00 58 1011.3
20260831210032 80 224 0.0 0.0 0.00 0.00 0.00 61 1011.5
20260831204535 80 233 1.0 0.0 0.00 0.00 0.00 61 1011.5
20260831203029 80 218 1.0 0.0 0.00 0.00 0.00 61 1011.7
20260831201528 80 216 1.0 0.0 0.00 0.00 0.00 62 1011.7
20260831200051 80 249 1.0 0.0 0.00 0.00 0.00 60 1011.7
20260831194530 80 233 0.0 0.0 0.00 0.00 0.00 61 1011.9
20260831193029 79 236 1.0 0.0 0.00 0.00 0.00 62 1012.0
20260831191526 79 230 1.0 0.0 0.00 0.00 0.00 61 1012.1
20260831190034 80 226 1.0 0.0 0.00 0.00 0.00 60 1012.2
20260831184523 80 262 0.0 0.0 0.00 0.00 0.00 59 1012.1
20260831183021 79 228 0.0 0.0 0.00 0.00 0.00 60 1012.1
20260831181526 79 242 0.0 0.0 0.00 0.00 0.00 59 1012.1
20260831180017 79 248 0.0 0.0 0.00 0.00 0.00 61 1012.1
20260831174514 76 247 0.0 0.0 0.00 0.00 0.00 64 1012.1
20260831173011 75 248 0.0 0.0 0.00 0.00 0.00 67 1012.1
20260831171509 74 248 0.0 0.0 0.00 0.00 0.00 69 1012.0
20260831170008 73 248 0.0 0.0 0.00 0.00 0.00 71 1011.9
20260831164513 71 248 0.0 0.0 0.00 0.00 0.00 74 1011.9
20260831163102 70 248 0.0 0.0 0.00 0.00 0.00 76 1011.8
20260831161546 69 248 0.0 0.0 0.00 0.00 0.00 77 1011.8
20260831160044 68 248 0.0 0.0 0.00 0.00 0.00 80 1011.8
20260831154549 67 248 0.0 0.0 0.00 0.00 0.00 81 1011.7
20260831153041 67 248 0.0 0.0 0.00 0.00 0.00 82 1011.7
20260831151542 67 248 0.0 0.0 0.00 0.00 0.00 84 1011.5
20260831150032 65 248 0.0 0.0 0.00 0.00 0.00 87 1011.4
20260831144529 64 248 0.0 0.0 0.00 0.00 0.00 92 1011.3
20260831143028 62 248 0.0 0.0 0.00 0.00 0.00 93 1011.1
20260831141526 61 248 0.0 0.0 0.00 0.00 0.00 93 1011.0
20260831140033 61 248 0.0 0.0 0.00 0.00 0.00 92 1010.8
20260831134520 60 248 0.0 0.0 0.00 0.00 0.00 92 1010.6
20260831133019 60 248 0.0 0.0 0.00 0.00 0.00 92 1010.4